Regional Weather Roundup
Issued by NWS

Home | Current Version | Previous Version | Graphics & Text | Print | Product List | Glossary On
Versions: 1 2 3 4 5 6 7 8 9 10 11 12 13 14 15 16 17 18 19 20 21 22 23 24 25 26 27
000
ASUS45 KBOU 280207
RWRCO

WEATHER ROUNDUP FOR COLORADO
NATIONAL WEATHER SERVICE DENVER/BOULDER CO
800 PM MDT TUE JUN 27 2017

NOTE: "FAIR" INDICATES FEW OR NO CLOUDS BELOW 12000 FEET WITH NO
SIGNIFICANT WEATHER AND/OR OBSTRUCTIONS TO VISIBILITY.

COZ001>005-013-030-031-280300-
...NORTHWEST COLORADO...

CITY           SKY/WX    TMP DP  RH WIND       PRES   REMARKS
CRAIG          FAIR      75  37  25 SW7       29.95R
HAYDEN         FAIR      73  34  23 W5        29.98R
MEEKER         FAIR      81  30  15 NW9       29.95R
RABBIT EARS PA FAIR      55  34  44 W5        30.30R
STEAMBOAT SPGS FAIR      69  44  40 CALM      30.00R
WALDEN         FAIR      68  32  26 W9        30.10S
$$

COZ006>008-011-280300-
...WEST CENTRAL VALLEYS...

CITY           SKY/WX    TMP DP  RH WIND       PRES   REMARKS
GRAND JUNCTION FAIR      91  21   8 SW9       29.80S
MONTROSE       FAIR      87  17   7 W10       29.90F
EAGLE          FAIR      82  20  10 W12       29.98R
RIFLE          FAIR      87  16   7 NW6       29.87R
DELTA          FAIR      93   8   4 W9        29.85R
NUCLA          FAIR      88   3   4 W14G21    29.96S
$$

COZ017>023-064>068-280300-
...SOUTHWEST COLORADO...

CITY           SKY/WX    TMP DP  RH WIND       PRES   REMARKS
DURANGO        FAIR      83  12   7 W14G20    30.01S
CORTEZ         FAIR      85  13   7 W6        29.96S
PAGOSA SPRINGS FAIR      80  14   8 W8        30.11S
TELLURIDE      FAIR      73  11   9 W7        30.25S
WOLF CREEK PAS FAIR      55  21  26 SW12G18   30.50S
$$

COZ009-010-012-014-032>034-037-058>063-280300-
...CENTRAL COLORADO...

CITY           SKY/WX    TMP DP  RH WIND       PRES   REMARKS
ASPEN          FAIR      75  21  13 W3        30.07S
BUENA VISTA    FAIR      76  15  10 W14G23    30.09R
COPPER MTN     FAIR      59  16  18 W21G26    30.42S
BERTHOUD PASS  FAIR      50  36  57 NW32G45   30.42F
COTTONWOOD PAS FAIR      70   5   8 W10G21    30.25R
GUNNISON       FAIR      76  23  14 NW9       30.08S
KREMMLING      FAIR      79  23  12 NW6       30.04R
LEADVILLE      FAIR      65  17  15 W6        30.24S
MONARCH PASS   FAIR      59  19  21 W36       30.52R
SALIDA         FAIR      81  18   9 NW15G24   30.12R
SUNLIGHT       MOCLDY    57  12  17 SW14G29   30.33S
WILKERSON PASS FAIR      59  14  17 W8        30.38R
$$

COZ069>075-280300-
...SAN LUIS VALLEY/SANGRE DE CRISTO MOUNTAINS...

CITY           SKY/WX    TMP DP  RH WIND       PRES   REMARKS
ALAMOSA        FAIR      76  29  17 SW10      30.06R
DEL NORTE      FAIR      75  25  15 W16G24    30.10R
LA VETA PASS   FAIR      63  25  23 MISG      30.37R
SAGUACHE       FAIR      77  23  13 NW15G24   30.08S
$$

COZ035-036-038>040-280300-
...NORTHERN COLORADO FRONT RANGE...

CITY           SKY/WX    TMP DP  RH WIND       PRES   REMARKS
DENVER INTL AP MOCLDY    88  32  13 NE9       29.82R
DMNS CITY PARK   N/A     86  25  11 W7G14     29.82R
AURORA         NOT AVBL
FRONT RANGE AP FAIR      86  32  14 E10       29.84R
ERIE MUNI ARPT FAIR      83  28  13 W3        29.80R
BOULDER MUN AP FAIR      86  30  13 W3        29.80R
CENTENNIAL     MOCLDY    87  25  10 W16       29.85R
BROOMFIELD     FAIR      82  28  14 W10       29.84R
FORT COLLINS   FAIR      80  40  23 N13       29.80R
LONGMONT       FAIR      87  27  11 W7        29.80R
$$

COZ041-046-047-076>085-087-088-280300-
...PIKES PEAK/PALMER DIVIDE AND SOUTHERN FOOTHILLS...

CITY           SKY/WX    TMP DP  RH WIND       PRES   REMARKS
COLO. SPRINGS  FAIR      87  20   8 W18       29.88R
A. F. ACADEMY  FAIR      84  17   8 NW10      29.91R
SCHRIEVER AFB  FAIR      79  37  21 W8        29.88R
CHEYENNE MTN   FAIR      79  26  14 N10       29.90R
ELLICOTT       FAIR     N/A N/A N/A SW9       29.85R
FALCON           N/A     79  29  16 N8        29.96R
FORT CARSON    MOCLDY    88  27  11 W5G18     29.84R
LIMON          FAIR      74  48  39 S12       29.81F
MONUMENT HILL  FAIR      75  36  23 N3        29.98R
CANON CITY     CLEAR     91  32  12 SW14G22   29.81R
WALSENBURG     FAIR      81  32  17 W9        29.90R
TRINIDAD       FAIR      85  26  11 W13       29.88R
$$

COZ042>045-048>051-090-091-280300-
...NORTHEAST COLORADO...

CITY           SKY/WX    TMP DP  RH WIND       PRES   REMARKS
GREELEY ARPT   FAIR      81  40  23 N8        29.79R
AKRON          FAIR      83  39  21 S12       29.77S
BURLINGTON     FAIR      77  51  40 S14G20    29.75F
WRAY           FAIR      81  43  26 N7        29.72R
YUMA           FAIR      77  46  33 CALM      29.74S
STERLING       FAIR      79  55  44 W15       29.72R
HOLYOKE        NOT AVBL
FORT MORGAN    FAIR      79  34  19 N20G28    29.80R
$$

COZ086-089-092>099-280300-
...SOUTHEAST COLORADO...

CITY           SKY/WX    TMP DP  RH WIND       PRES   REMARKS
PUEBLO         FAIR      92  35  13 W15       29.74R
LA JUNTA       FAIR      90  46  21 S16       29.71S
LAMAR          FAIR      88  46  23 S22G29    29.68S
SPRINGFIELD      N/A     80  45  28 S21G31    29.81S
$$




USA.gov is the U.S. government's official web portal to all federal, state and local government web resources and services.